Nassau, Bahamas

6:06 AM EDT on May 28, 2018 (GMT -0400)
Nassau International

Weather History for MYNN - September, 2014

Change the Weather History Date:

Tuesday, September 9, 2014

  Actual Average Record
Temperature  
Mean Temperature 82 °F -  
Max Temperature 90 °F 87 °F 95 °F (1998)
Min Temperature 75 °F 73 °F 75 °F (1996)
Cooling Degree Days 18    
Growing Degree Days 32 (Base 50)    
Moisture  
Dew Point 73 °F    
Average Humidity 82    
Maximum Humidity 94    
Minimum Humidity 62    
Precipitation  
Precipitation 0.31 in 0.23 in - ()
Sea Level Pressure  
Sea Level Pressure 30.03 in    
Wind  
Wind Speed 5 mph ()    
Max Wind Speed 14 mph    
Max Gust Speed 26 mph    
Visibility 6.8 miles    
Events Rain , Thunderstorm    
Averages and records for this station are not official NWS values.
T = Trace of Precipitation, MM = Missing Value Source: Averaged Metar Reports

Daily Weather History Graph

Daily Weather History Graph

Search for Another Location

Airport or City:

Astronomy

Sep. 09, 2014 Rise Set
Actual Time 6:53 AM EDT 7:20 PM EDT
Civil Twilight 6:30 AM EDT 7:43 PM EDT
Nautical Twilight 6:03 AM EDT 8:10 PM EDT
Astronomical Twilight 5:36 AM EDT 8:37 PM EDT
Moon 7:48 PM EDT (9/9) 7:21 AM EDT (9/9)
Length of Visible Light 13h 12m
Length of Day
12h 26m
Waxing Gibbous, 99% of the Moon is Illuminated
Sep 9
Waxing Gibbous
Sep 15
Last Quarter
Sep 24
New
Oct 1
First Quarter
Oct 8
Full

Hourly Weather History & Observations

Time (EDT) Temp. Heat Index Dew Point Humidity Pressure Visibility Wind Dir Wind Speed Gust Speed Precip Events Conditions
1:00 AM 78.8 °F - 75.2 °F 89% 30.04 in 6.2 mi East 4.6 mph - N/A   Mostly Cloudy
2:00 AM 79 °F - 68 °F 62%  in 9 mi East 4.6 mph - -   Scattered Clouds
2:00 AM 78.8 °F - 73.4 °F 83% 30.06 in 6.2 mi East 4.6 mph - N/A   Partly Cloudy
5:00 AM 79 °F - 75 °F 85% 30.04 in 9 mi East 4.6 mph - -   Partly Cloudy
6:00 AM 78.8 °F - 71.6 °F 78% 30.05 in 6.2 mi Variable 2.3 mph - N/A   Mostly Cloudy
7:00 AM 78.8 °F - 71.6 °F 78% 30.05 in 6.2 mi Variable 2.3 mph - N/A   Partly Cloudy
8:00 AM 81 °F - 75 °F 78% 30.04 in 8 mi East 4.6 mph - -   Scattered Clouds
8:00 AM 80.6 °F 85.4 °F 73.4 °F 79% 30.03 in - North - - N/A   Scattered Clouds
9:00 AM 82.4 °F 88.2 °F 73.4 °F 74% 30.06 in 6.2 mi East 8.1 mph - N/A   Scattered Clouds
10:00 AM 84.2 °F 90.9 °F 73.4 °F 70% 30.05 in 6.2 mi East 8.1 mph - N/A   Scattered Clouds
11:00 AM 77 °F - 74 °F 90% 30.00 in 6 mi SE 6.9 mph - - Rain Rain
3:00 PM 84.2 °F 88.4 °F 69.8 °F 62% 30.02 in 6.2 mi East 11.5 mph 24.2 mph N/A Thunderstorm Thunderstorm
4:00 PM 75.2 °F - 71.6 °F 89% 30.01 in - East 13.8 mph 26.5 mph N/A Rain , Thunderstorm Thunderstorms and Rain
5:00 PM 77.0 °F - 75.2 °F 94% 30.00 in 5.6 mi SE 6.9 mph - N/A Rain Rain
6:00 PM 75.2 °F - 71.6 °F 89% 30.00 in 6.2 mi SE 11.5 mph - N/A Rain Light Rain
7:00 PM 77.0 °F - 71.6 °F 83% 30.00 in 6.2 mi SE 4.6 mph - N/A Rain Light Rain
8:00 PM 78 °F - 75 °F 88% 30.01 in 9 mi ESE 3.5 mph - - Rain Light Rain
8:00 PM 78.8 °F - 75.2 °F 89% 30.01 in 6.2 mi ESE 3.5 mph - N/A   Mostly Cloudy
9:00 PM 78.8 °F - 73.4 °F 83% 30.02 in 6.2 mi East 3.5 mph - N/A   Mostly Cloudy
10:00 PM 78.8 °F - 73.4 °F 83% 30.02 in 6.2 mi East 3.5 mph - N/A   Scattered Clouds
11:00 PM 79 °F - 75 °F 83% 30.04 in 8 mi Calm Calm - -   Partly Cloudy
11:00 PM 78.8 °F - 75.2 °F 89% 30.03 in 6.2 mi Calm Calm - N/A   Mostly Cloudy